Regional Weather Roundup
Issued by NWS Albany, NY

Home | Current Version | Previous Version | Text Only | Print | Product List | Glossary On
Versions: 1 2 3 4 5 6 7 8 9 10 11 12 13 14 15 16 17 18 19 20 21 22 23 24 25 26 27 28 29 30 31 32 33 34 35 36 37 38 39 40 41 42 43 44 45 46 47 48 49 50
000
ASUS41 KALY 280110
RWRALY

NEW YORK STATE HOURLY WEATHER ROUNDUP
NATIONAL WEATHER SERVICE ALBANY NY
900 PM EDT MON JUL 27 2015

NOTE: "FAIR" INDICATES FEW OR NO CLOUDS BELOW 12,000 FEET WITH NO
SIGNIFICANT WEATHER AND/OR NO OBSTRUCTIONS TO VISIBILITY.

NYZ032-033-038>043-046>054-057>066-NYZ062>081-280200-
EAST


CITY           SKY/WX    TMP DP  RH WIND       PRES   REMARKS
ALBANY         MOCLDY    81  67  62 CALM      29.97R
GLENS FALLS    PTCLDY    72  66  81 CALM      29.97R
POUGHKEEPSIE   PTCLDY    77  68  73 SE3       29.98R
NEWBURGH       PTCLDY    73  70  88 CALM      30.01S
MONTGOMERY     PTCLDY    73  69  87 CALM      29.99S
WHITE PLAINS   PTCLDY    75  68  78 S6        30.00F
ISLIP          MOCLDY    75  69  81 SW7       30.00R
NEW YORK CITY  MOCLDY    79  66  64 S10G16    30.00R
CENTRAL PARK   CLOUDY    79  66  64 VRB3      30.03R
$$

NYZ005>009-017-018-044>046-055-056-280200-
CENTRAL


CITY           SKY/WX    TMP DP  RH WIND       PRES   REMARKS
FULTON         CLEAR     70  62  76 CALM      29.99R
SYRACUSE       PTCLDY    75  65  70 N3        29.98R
ROME           CLEAR     73  66  78 CALM      30.00R
ELMIRA         CLEAR     69  65  86 CALM      30.01R
BINGHAMTON     CLEAR     76  62  62 N6        30.04S
MONTICELLO     CLEAR     73  66  78 S3        30.05R
$$

NYZ026>034-041>043-280200-
NORTH


CITY           SKY/WX    TMP DP  RH WIND       PRES   REMARKS
WATERTOWN      PTCLDY    71  60  68 CALM      29.98R
FORT DRUM      NOT AVBL
MASSENA        MOCLDY    78  63  59 SW8       29.95R
SARANAC LAKE   PTCLDY    67  64  90 CALM      30.02R
PLATTSBURGH    MOCLDY    72  67  84 S3        29.95R
$$

NYZ001>004-010>016-019>021-280200-
WEST


CITY           SKY/WX    TMP DP  RH WIND       PRES   REMARKS
NIAGARA FALLS  PTCLDY    79  63  57 SW6       29.98S
BUFFALO        PTCLDY    81  60  48 SW5       30.00R
DUNKIRK        CLEAR     74  66  76 CALM      30.01R
JAMESTOWN      CLEAR     73  59  60 N7        30.07R
WELLSVILLE     CLEAR     74  60  61 E3        30.09S
ROCHESTER      PTCLDY    80  64  58 SE5       30.00R
PENN YAN       CLEAR     71  65  81 CALM      30.02S
$$

             KEY
       WCI = WIND CHILL INDEX
       VSB = VISIBILITY
       HX  = HEAT INDEX
$$


USA.gov is the U.S. government's official web portal to all federal, state and local government web resources and services.